Location: Colle Pacifico
(43.5333°N, 13.3167°E)
Time: 04:24:17
(UTC+00:00)

Cosmos 1400 Rocket - Pass Details

Date: 07 June 2020
Orbit: 522 x 568 km, 81.2° (Epoch: 07 July)

Event Time Altitude Azimuth Distance (km) Brightness Sun altitude
Rises 00:02:13 0° 354° (N) 2,778 7.6 -22.4°
Reaches altitude 10° 00:04:28 10° 360° (N) 1,876 6.6 -22.3°
Maximum altitude 00:08:31 51° 77° (ENE) 718 3.5 -22.1°
Enters shadow 00:09:24 42° 118° (ESE) 810 3.5 -22.1°
